Wind_Speed
16 16 15 14 15 14 14 14 13 12 12 13 15 16 15 14 14 16 16 16 14 13 12 11 10 9 10 11 11 11 11 12 12 12 12 12 12 11 12 13 12 12
14 13 11 12 13 13 13 13 13 12 12 13 14 15 14 14 16 17 16 15 14 12 11 10 10 9 10 11 11 12 12 11 11 11 12 12 12 12 12 13 12 13
14 12 10 11 12 12 12 12 12 12 12 13 14 14 15 16 17 17 17 16 14 12 11 10 9 9 10 11 12 12 12 12 11 12 12 12 12 12 12 13 13 13
17 16 15 15 14 12 13 13 13 13 14 15 14 15 16 17 18 18 17 16 15 13 11 10 10 10 11 12 13 14 13 13 12 12 13 13 13 13 13 13 14 13
18 17 15 17 18 16 15 15 15 16 17 17 15 15 16 18 19 19 18 17 15 14 12 11 10 11 12 13 14 15 14 14 13 13 14 13 13 14 14 14 14 14
14 15 13 15 17 17 16 17 18 18 19 19 17 16 17 19 19 18 18 17 16 14 13 12 12 12 13 15 16 16 15 15 15 14 14 14 14 14 14 14 14 14
13 14 14 14 16 16 16 17 19 19 19 19 18 17 18 19 19 19 18 16 15 13 12 12 12 13 14 15 16 17 16 16 15 15 15 14 14 15 15 15 15 15
16 15 15 14 15 17 18 18 19 18 19 19 17 17 19 20 20 19 18 16 14 13 12 11 11 12 13 15 15 16 16 16 16 16 16 15 16 16 16 16 16 17
16 15 15 14 14 16 18 18 18 19 19 18 17 18 20 20 20 19 17 16 15 14 13 12 12 13 13 14 14 14 15 16 16 16 16 16 16 16 17 17 17 17
16 14 12 13 13 14 15 18 19 20 20 18 17 17 19 20 19 18 17 17 16 15 15 14 14 14 14 14 14 15 16 17 17 16 16 16 16 16 16 15 16 17
16 14 13 14 15 14 16 18 19 19 19 17 16 16 18 19 18 17 17 17 16 15 15 15 15 15 14 14 15 16 16 17 16 16 16 16 16 16 15 15 16 17
14 14 14 15 17 17 18 20 19 18 19 18 16 17 19 18 17 18 18 16 16 15 15 15 15 14 14 14 15 16 16 16 16 16 15 16 17 16 16 16 17 16
14 14 13 14 17 18 19 19 18 17 18 18 18 18 19 17 17 18 17 16 16 16 15 15 14 14 14 14 15 16 16 17 17 16 16 16 17 17 17 17 17 17
15 14 13 14 17 19 18 19 19 17 17 18 18 19 19 19 19 18 18 17 17 16 15 14 14 14 14 14 16 17 18 18 18 17 17 17 17 17 17 17 18 18
16 15 13 13 17 18 18 19 20 18 17 17 17 19 19 19 19 19 19 18 17 16 15 15 15 16 16 16 17 18 19 19 20 19 18 18 18 18 18 18 18 19
17 15 13 13 15 17 17 18 18 19 19 17 17 18 18 18 20 20 19 18 17 16 17 17 18 18 18 18 19 19 20 21 21 21 19 19 20 19 19 20 21 21
17 13 10 12 15 18 19 19 20 20 20 19 19 20 19 19 21 20 19 19 19 19 20 20 20 20 21 21 22 21 21 22 23 23 22 22 22 21 21 22 23 23
16 12 9 11 16 19 21 22 23 22 21 21 22 22 21 20 20 20 19 19 20 21 22 22 22 22 22 23 24 24 22 22 23 24 25 25 24 24 24 24 24 23
13 11 11 13 16 19 21 21 23 23 22 23 23 23 22 21 21 20 20 20 21 21 22 22 22 22 22 23 24 24 23 22 23 24 25 26 25 25 25 24 24 23
16 15 15 15 17 20 19 19 21 23 22 22 22 22 22 21 20 20 20 20 21 22 24 24 24 24 23 23 23 23 23 23 24 25 26 26 26 26 26 25 25 24
13 15 17 18 18 20 20 19 21 22 21 20 20 21 20 20 19 18 18 19 20 22 24 26 26 25 25 24 24 25 25 25 25 26 27 28 27 27 26 27 27 26
12 14 18 20 18 19 20 20 20 21 20 18 19 19 20 20 19 17 17 18 20 21 23 25 26 27 26 26 26 27 28 28 28 28 30 31 30 27 26 27 28 28
12 12 15 19 20 20 20 19 19 20 18 17 19 21 22 22 21 19 19 19 20 20 20 22 24 26 26 26 27 28 29 30 29 30 31 32 31 29 27 26 27 28
12 11 10 12 14 16 17 18 17 17 17 19 22 24 21 18 19 20 20 20 20 20 20 20 20 20 22 23 24 25 25 25 26 26 27 28 28 26 25 24 24 25
15 14 13 11 10 11 15 16 15 16 19 21 22 22 19 18 20 22 22 22 22 22 21 20 19 19 19 21 22 23 24 24 25 25 25 25 25 24 23 23 24 25
16 17 16 15 13 13 14 15 14 16 18 19 19 18 18 19 21 23 23 22 22 21 21 21 21 21 21 22 23 23 24 25 25 25 25 24 24 24 24 25 26 27
Wind_Direction
242 233 228 232 234 238 244 246 248 249 246 243 240 241 246 253 257 253 249 246 241 236 234 233 232 231 229 229 230 231 234 239 243 246 249 252 251 251 253 255 257 256
244 236 232 235 236 237 244 250 254 255 251 247 242 241 246 251 252 250 247 245 240 236 233 231 230 229 231 234 233 233 236 239 242 245 248 250 252 253 254 257 259 259
253 263 267 260 252 245 248 253 256 256 252 246 242 242 245 247 248 248 247 245 241 236 233 232 232 233 237 239 236 235 235 236 240 243 245 249 252 256 259 262 264 265
269 281 281 269 261 253 250 252 252 252 250 246 245 245 246 247 248 249 248 245 241 237 235 236 236 236 238 236 233 232 232 232 235 240 244 249 254 259 265 268 270 272
271 276 275 264 259 251 244 245 246 248 249 246 246 247 248 248 248 249 247 243 241 239 239 240 238 235 234 232 229 229 229 231 234 239 245 252 259 265 269 271 272 273
264 265 266 259 253 247 242 241 242 245 244 238 241 249 251 250 248 247 245 241 241 243 244 244 240 235 232 231 230 228 228 231 236 242 248 256 264 268 271 273 272 272
266 267 265 254 244 246 251 249 245 243 237 233 241 249 248 248 246 245 242 240 242 244 247 247 242 235 231 232 232 231 231 235 240 246 252 257 263 267 270 272 274 274
272 272 271 260 245 245 249 250 246 239 233 236 244 244 243 245 244 242 240 241 243 244 244 244 237 230 228 230 234 236 236 240 244 249 254 258 262 265 269 271 274 276
271 270 270 264 253 246 244 243 241 237 238 242 243 241 244 245 243 241 241 243 243 242 240 237 232 229 229 231 235 237 239 243 246 250 255 259 263 267 269 271 272 273
264 263 263 255 249 243 237 236 237 240 244 246 243 244 247 246 244 243 244 246 246 241 238 237 236 238 240 240 240 239 241 243 246 250 254 260 264 267 269 270 270 271
260 257 258 254 247 236 230 234 241 248 250 246 242 243 244 244 244 243 244 246 244 240 238 238 240 245 247 248 247 245 245 245 247 250 254 259 263 266 268 268 268 270
263 256 258 255 244 234 231 234 242 248 248 243 239 238 240 241 240 240 241 240 238 238 238 238 240 246 249 252 252 250 249 249 250 252 256 260 263 264 265 264 265 267
268 255 255 250 237 233 234 233 235 238 239 239 237 236 239 240 238 238 238 236 235 235 237 238 242 246 250 252 252 252 251 250 252 255 258 260 262 261 260 259 259 261
266 256 256 249 235 233 234 232 233 233 235 237 237 236 237 237 239 239 237 235 234 234 236 241 246 249 250 251 250 250 250 251 253 256 258 260 259 257 255 254 255 259
259 252 255 254 240 234 236 236 234 235 236 237 237 237 237 237 240 241 239 238 236 236 240 244 249 254 254 253 252 250 250 251 252 253 255 257 256 255 254 254 256 260
247 240 246 251 243 236 239 239 235 235 238 239 240 242 240 239 242 243 242 243 241 241 244 247 251 256 257 258 257 255 253 252 252 252 252 254 255 255 254 252 253 255
228 227 241 246 241 240 244 243 239 238 239 239 241 241 239 240 244 247 246 246 246 245 247 250 253 256 259 261 262 261 258 255 254 254 253 253 253 252 251 251 252 256
218 213 231 245 246 246 248 246 242 239 238 239 241 240 240 244 249 253 252 248 248 248 248 250 253 255 257 258 260 262 262 260 258 257 257 257 255 254 253 254 255 259
251 244 246 252 248 242 244 244 242 241 240 242 244 242 242 247 252 255 255 251 249 249 249 250 251 253 254 255 257 259 260 260 259 258 259 260 259 258 256 255 257 260
276 277 269 261 249 240 239 237 236 241 244 243 243 244 245 248 252 255 257 256 254 251 250 251 251 252 252 251 252 254 257 260 261 260 261 261 261 259 258 257 260 262
262 271 270 266 258 250 245 234 230 238 246 243 240 242 243 243 244 249 254 257 259 257 253 251 250 250 250 252 255 256 257 259 260 262 263 263 261 260 259 259 258 259
247 255 255 251 248 245 242 236 230 233 240 243 242 243 242 239 239 244 248 250 253 255 253 250 247 245 246 251 257 258 256 255 254 257 261 264 264 264 263 261 258 256
244 249 246 239 233 232 236 240 238 235 237 241 244 247 248 242 237 240 244 244 245 250 252 251 248 245 244 248 253 255 255 255 254 254 257 262 266 266 264 261 258 256
250 254 256 244 232 230 234 237 235 233 233 234 237 244 248 241 233 236 241 244 248 252 253 251 250 247 246 248 251 253 254 256 256 255 255 258 260 260 258 256 255 255
265 263 264 261 251 237 231 227 222 222 228 232 237 243 247 245 240 240 244 248 251 252 250 249 248 247 247 248 250 251 253 255 255 256 256 256 257 256 254 253 253 254
271 269 265 263 258 247 241 239 237 236 240 244 246 250 252 252 249 246 245 246 248 248 247 247 248 248 248 249 250 251 253 254 254 255 256 257 258 257 256 256 256 257
Height
5769 5768 5769 5771 5773 5775 5777 5778 5780 5781 5782 5783 5785 5787 5788 5789 5790 5791 5792 5793 5793 5793 5793 5794 5794 5794 5795 5795 5796 5797 5798 5800 5801 5801 5802 5803 5803 5804 5804 5804 5805 5805
5769 5767 5769 5771 5772 5774 5776 5777 5779 5780 5781 5782 5784 5785 5786 5787 5789 5790 5791 5791 5791 5791 5791 5791 5792 5792 5793 5793 5794 5795 5797 5798 5799 5800 5800 5801 5802 5802 5803 5803 5803 5803
5769 5768 5769 5771 5772 5773 5775 5776 5777 5778 5780 5781 5782 5783 5784 5786 5787 5788 5788 5789 5789 5789 5789 5789 5789 5790 5791 5791 5793 5794 5795 5796 5797 5798 5799 5800 5801 5801 5801 5801 5801 5801
5769 5769 5769 5770 5770 5771 5773 5774 5775 5777 5778 5780 5781 5782 5783 5784 5785 5785 5786 5786 5786 5786 5787 5787 5788 5788 5789 5790 5791 5792 5793 5794 5796 5797 5798 5798 5799 5800 5800 5800 5800 5800
5768 5768 5769 5769 5769 5768 5769 5772 5774 5775 5777 5778 5780 5781 5781 5782 5782 5783 5783 5784 5784 5785 5785 5786 5786 5787 5788 5789 5790 5790 5791 5793 5794 5795 5796 5796 5797 5798 5798 5798 5798 5798
5766 5766 5766 5767 5767 5767 5767 5769 5771 5773 5775 5776 5778 5778 5779 5779 5780 5780 5781 5781 5782 5783 5784 5784 5785 5786 5786 5787 5788 5789 5790 5790 5792 5793 5794 5794 5795 5795 5796 5796 5796 5796
5764 5764 5763 5764 5765 5766 5766 5767 5769 5770 5771 5773 5774 5775 5776 5776 5777 5777 5778 5779 5780 5781 5782 5783 5783 5784 5784 5785 5786 5787 5788 5789 5789 5790 5791 5792 5792 5793 5793 5793 5793 5793
5761 5762 5761 5761 5762 5763 5764 5765 5766 5767 5768 5769 5770 5771 5772 5773 5774 5775 5776 5777 5778 5779 5780 5780 5781 5782 5782 5783 5784 5785 5786 5787 5787 5788 5789 5789 5790 5790 5790 5790 5791 5791
5758 5759 5759 5759 5760 5760 5761 5762 5763 5764 5765 5766 5767 5768 5769 5770 5771 5772 5773 5774 5775 5776 5777 5778 5779 5780 5780 5781 5782 5783 5784 5785 5785 5786 5786 5786 5787 5787 5787 5788 5788 5788
5755 5756 5757 5757 5758 5759 5759 5760 5761 5762 5763 5763 5765 5766 5768 5769 5770 5771 5771 5772 5773 5775 5775 5776 5777 5777 5778 5779 5780 5781 5782 5782 5783 5784 5784 5784 5784 5784 5784 5785 5785 5786
5752 5753 5754 5755 5756 5757 5757 5758 5759 5760 5761 5762 5764 5765 5766 5767 5768 5769 5769 5770 5772 5773 5773 5774 5775 5775 5776 5777 5778 5778 5779 5780 5781 5781 5781 5781 5781 5781 5782 5782 5782 5783
5749 5750 5751 5751 5753 5754 5754 5755 5757 5759 5759 5760 5762 5763 5764 5765 5766 5767 5767 5768 5769 5770 5771 5772 5773 5773 5774 5775 5775 5776 5776 5777 5778 5778 5779 5779 5778 5779 5779 5780 5780 5781
5745 5747 5748 5748 5749 5750 5752 5753 5755 5756 5757 5758 5760 5761 5761 5763 5764 5764 5765 5766 5767 5768 5769 5770 5771 5771 5772 5773 5773 5773 5774 5775 5775 5776 5776 5776 5776 5776 5777 5777 5778 5778
5742 5743 5744 5745 5746 5747 5749 5750 5752 5753 5755 5756 5757 5758 5759 5760 5761 5762 5762 5763 5764 5765 5767 5768 5768 5769 5770 5770 5771 5771 5772 5772 5772 5773 5773 5773 5774 5774 5774 5775 5775 5776
5738 5739 5741 5742 5743 5744 5746 5747 5749 5751 5752 5753 5754 5755 5756 5757 5758 5759 5760 5761 5762 5764 5764 5765 5766 5766 5767 5768 5768 5768 5769 5769 5769 5770 5771 5771 5771 5771 5772 5773 5774 5774
5736 5738 5739 5740 5741 5742 5743 5744 5746 5748 5749 5750 5751 5752 5753 5754 5754 5755 5757 5759 5760 5761 5762 5762 5763 5763 5764 5764 5765 5765 5766 5766 5767 5767 5768 5769 5769 5769 5770 5770 5770 5770
5733 5735 5737 5739 5740 5740 5741 5742 5744 5745 5746 5747 5748 5748 5749 5750 5750 5752 5754 5756 5758 5759 5759 5759 5760 5761 5761 5761 5762 5762 5763 5763 5764 5765 5766 5766 5766 5766 5767 5767 5767 5767
5731 5732 5734 5737 5738 5739 5739 5740 5741 5742 5743 5744 5744 5745 5746 5747 5748 5750 5752 5753 5754 5755 5756 5756 5757 5758 5758 5759 5759 5759 5760 5760 5761 5762 5762 5762 5763 5763 5763 5764 5764 5765
5731 5731 5732 5734 5735 5736 5737 5738 5738 5739 5740 5741 5742 5743 5744 5745 5746 5748 5749 5750 5751 5752 5752 5753 5754 5755 5755 5756 5756 5756 5757 5757 5758 5758 5758 5759 5760 5760 5760 5761 5761 5761
5730 5731 5731 5732 5733 5734 5735 5736 5736 5736 5737 5739 5740 5741 5742 5743 5744 5745 5746 5747 5748 5749 5749 5750 5751 5751 5752 5753 5753 5753 5753 5754 5755 5755 5755 5756 5757 5757 5757 5757 5758 5757
5729 5729 5730 5730 5731 5732 5733 5734 5735 5735 5735 5736 5737 5738 5740 5741 5741 5742 5743 5744 5745 5745 5746 5746 5747 5748 5748 5749 5750 5750 5751 5751 5751 5751 5752 5752 5753 5754 5754 5754 5754 5753
5728 5728 5728 5728 5729 5729 5730 5731 5733 5733 5733 5734 5735 5736 5737 5738 5739 5740 5741 5742 5742 5742 5742 5743 5743 5744 5744 5745 5746 5746 5747 5747 5747 5747 5748 5748 5748 5750 5750 5750 5749 5749
5726 5727 5726 5726 5727 5728 5728 5729 5730 5731 5732 5733 5733 5733 5734 5735 5737 5738 5739 5739 5739 5739 5740 5740 5740 5740 5740 5741 5741 5742 5742 5742 5743 5743 5743 5744 5744 5745 5746 5745 5745 5745
5724 5724 5724 5724 5725 5726 5727 5727 5728 5729 5730 5731 5731 5730 5731 5732 5734 5735 5735 5736 5737 5737 5737 5737 5737 5737 5738 5738 5738 5738 5738 5738 5739 5739 5739 5740 5740 5741 5741 5742 5742 5742
5722 5722 5723 5723 5723 5724 5724 5725 5726 5726 5727 5727 5728 5728 5728 5729 5730 5731 5732 5733 5734 5734 5735 5735 5735 5735 5735 5735 5735 5735 5735 5735 5735 5736 5736 5736 5737 5737 5737 5737 5738 5737
5719 5720 5721 5721 5722 5722 5722 5723 5723 5724 5724 5725 5725 5726 5726 5727 5727 5728 5729 5730 5730 5731 5732 5732 5732 5732 5732 5732 5732 5732 5732 5732 5732 5732 5733 5733 5733 5733 5733 5733 5734 5733